Dewpoint
65 65 66 67 67 67 66 67 67 67 67 67 67 67 68 67 67 67 66 66 65 64 63 63 62 61 60 60 60 60 60 58 58 56 55 54 52 51 55 54 56 54 51 47 47 41 41 38 38 41 45 48 48 47 43 38 36 39 42 41 35 37 38
66 66 66 66 66 67 66 66 66 66 66 67 67 67 68 67 66 66 66 66 65 64 62 63 64 63 61 61 60 60 60 58 58 59 57 54 55 55 53 54 54 50 46 48 46 43 37 38 35 36 38 44 47 48 47 45 41 42 39 39 37 38 41
66 66 66 66 66 66 66 65 66 66 66 66 67 67 67 66 66 66 66 65 65 65 62 63 63 62 62 61 61 61 60 59 59 59 59 58 57 58 54 54 52 51 50 48 44 42 42 42 37 31 38 40 39 43 48 45 43 41 40 43 41 35 38
66 66 66 66 65 65 65 65 65 65 66 66 66 66 67 66 66 66 66 65 65 65 64 63 63 61 64 63 62 61 61 61 58 58 58 58 57 57 55 54 52 51 51 51 50 45 45 42 39 38 38 33 33 44 44 45 43 40 37 40 39 39 40
66 65 65 65 65 65 65 64 64 65 65 66 66 65 66 65 66 65 65 65 64 65 64 63 63 63 63 61 60 60 60 60 60 58 58 56 57 57 56 55 54 54 54 53 53 51 48 46 45 45 39 36 35 34 39 44 40 37 35 36 36 38 38
65 65 65 65 65 65 64 64 64 63 64 64 65 65 65 65 65 66 64 64 64 64 64 64 65 63 60 61 60 60 60 59 59 58 56 57 58 57 55 56 55 55 54 55 56 54 51 51 48 46 41 39 36 36 34 36 36 35 36 36 34 34 34
65 66 65 64 65 65 65 64 64 64 63 65 64 64 64 64 64 65 64 64 64 64 63 63 61 61 60 59 60 60 59 60 59 59 57 58 59 59 59 56 55 54 54 56 55 54 52 50 48 47 44 41 42 35 32 32 33 31 33 34 34 34 34
65 65 66 65 65 65 65 64 64 65 64 64 64 65 63 63 64 63 64 64 63 63 61 61 61 60 60 58 58 58 58 58 58 58 58 58 57 57 57 56 56 55 55 54 53 53 51 51 50 49 44 42 40 37 33 30 31 32 33 34 34 33 34
66 66 66 66 65 65 65 65 65 65 65 65 65 64 63 63 62 62 63 63 61 61 60 60 59 58 58 58 56 57 56 54 57 57 58 57 57 57 57 56 55 53 54 52 51 52 49 50 50 50 46 43 39 36 37 35 33 31 33 33 34 34 34
66 66 65 66 66 66 66 65 65 65 65 65 63 63 62 62 62 62 61 61 60 62 60 60 60 58 57 57 56 56 55 54 55 55 56 56 57 56 55 55 53 53 51 53 51 51 52 51 49 48 45 43 42 38 37 35 36 34 33 33 32 32 34
65 66 66 65 65 66 65 65 65 64 64 63 62 62 62 61 61 61 61 60 60 60 60 58 58 57 57 58 56 55 55 54 54 55 55 54 55 54 53 52 51 49 50 50 50 51 51 51 48 48 47 45 44 40 39 36 37 38 36 37 35 31 32
65 65 65 66 65 65 64 64 64 64 64 62 61 61 61 60 60 60 60 59 59 58 58 57 57 56 56 55 55 55 53 53 52 52 53 53 52 52 51 51 50 49 49 50 49 48 50 48 47 46 47 47 46 47 44 39 35 40 41 39 38 34 31
64 64 65 65 64 64 64 64 63 64 63 61 61 60 60 59 59 59 59 58 58 57 56 56 56 56 56 55 54 52 52 52 50 51 50 49 48 49 49 48 48 47 47 46 46 47 46 48 48 45 46 45 46 46 45 41 37 40 40 41 40 36 32
65 65 65 65 64 65 64 64 64 64 62 61 61 60 59 59 58 58 57 57 56 56 56 56 56 56 55 54 53 52 51 49 48 49 49 49 47 48 47 45 45 47 46 45 44 44 42 43 45 46 45 43 43 45 42 41 37 42 41 43 41 36 34
65 65 65 65 64 64 64 63 63 62 62 61 60 59 58 59 58 57 56 56 56 55 55 54 55 54 53 53 53 51 51 48 48 48 48 46 46 48 49 44 43 44 44 42 42 37 37 38 36 37 42 42 40 43 45 39 39 39 40 41 39 39 37
64 65 65 64 64 64 64 63 62 62 61 60 59 59 58 58 57 56 56 56 55 54 54 53 54 53 53 52 50 50 50 49 49 48 48 47 44 45 45 46 44 45 46 44 44 43 43 39 37 38 40 40 42 43 42 43 41 40 40 38 40 37 36
65 64 64 64 64 64 63 62 61 61 60 60 58 58 58 56 56 56 56 54 54 54 53 54 53 52 51 50 49 49 48 49 49 48 47 45 44 44 44 44 45 45 44 44 42 43 42 42 40 38 38 40 42 41 43 43 42 42 40 38 39 33 35
64 64 64 64 64 64 63 62 61 60 60 59 58 57 56 55 55 54 55 54 53 53 53 52 51 51 52 51 49 49 47 47 48 47 47 46 45 44 44 44 43 43 44 43 44 41 41 43 38 38 38 36 36 41 43 42 41 42 40 38 38 37 38
64 63 63 63 64 63 63 61 60 60 59 58 58 56 55 54 53 53 54 53 52 52 51 51 51 50 49 50 50 49 48 48 47 46 46 46 45 45 45 44 44 43 42 43 43 44 43 42 40 39 38 35 35 41 42 42 42 41 40 39 39 35 37
63 63 63 63 63 62 62 61 60 59 59 58 57 56 54 54 54 53 53 52 52 52 51 50 50 50 49 48 48 48 48 48 47 47 46 45 45 45 44 44 45 44 43 43 44 44 44 45 43 41 41 42 40 44 45 39 37 39 38 38 37 36 33
63 63 63 63 62 62 62 61 60 60 59 58 57 55 54 53 53 52 52 52 52 51 51 50 49 49 48 48 48 48 47 48 46 46 47 45 45 45 45 44 44 44 43 43 44 44 44 44 43 42 45 47 47 42 38 38 39 36 37 37 33 31 34
63 63 63 62 62 62 62 61 60 59 59 58 57 55 54 53 52 51 51 52 51 51 50 50 49 50 49 48 48 48 47 46 46 45 45 45 45 44 44 45 44 44 45 46 47 47 47 47 45 45 47 44 40 39 39 38 37 36 36 35 33 35 33
63 63 62 62 61 61 60 60 60 59 58 57 57 55 53 53 52 51 50 50 50 51 51 50 50 48 48 48 48 46 49 48 46 46 45 45 45 44 44 45 46 46 47 48 46 44 42 43 46 44 43 43 40 40 39 38 36 35 35 32 31 32 32
63 62 62 61 61 61 60 59 59 58 58 57 56 54 53 51 51 51 50 50 50 51 50 48 45 42 42 45 48 49 48 48 46 46 46 46 44 44 45 43 45 47 47 47 46 42 41 41 41 41 43 44 45 41 40 38 37 38 34 32 34 34 33
62 62 62 61 61 60 60 59 58 58 58 57 56 54 53 51 51 51 51 50 51 51 51 46 41 41 41 42 46 49 48 47 47 46 45 45 44 44 44 45 46 47 46 45 44 43 42 41 39 39 38 38 36 35 38 40 39 37 38 34 34 33 34
62 62 62 61 61 60 59 59 59 59 58 57 55 53 53 52 52 52 51 50 51 51 51 42 41 41 41 41 42 46 47 47 47 46 46 45 44 44 44 45 46 48 48 49 45 44 42 42 41 40 40 39 38 35 33 34 37 42 39 37 33 34 33
62 62 62 61 61 59 59 59 59 59 57 56 54 54 54 53 52 51 51 51 51 51 51 43 40 40 40 40 40 43 47 48 47 46 46 45 46 46 45 45 45 47 47 46 45 43 42 42 43 42 41 40 38 40 36 36 36 37 42 38 34 33 40
62 62 61 61 60 60 59 59 58 58 56 55 55 54 54 53 52 51 51 52 51 51 51 42 40 40 39 39 39 42 49 49 48 47 47 47 46 47 47 47 48 45 46 46 46 43 42 42 42 42 41 39 39 38 36 38 40 40 41 42 43 42 44
62 62 61 60 60 59 59 58 57 57 56 56 55 55 54 53 52 51 51 51 51 51 51 40 39 39 39 39 39 46 48 48 47 46 47 47 47 47 47 48 46 45 46 44 45 39 40 41 41 39 37 36 36 39 40 44 39 39 44 44 44 44 44
62 61 61 60 59 59 58 58 58 57 56 55 55 54 54 53 52 51 51 50 50 50 50 42 39 39 39 39 41 46 48 45 46 46 46 47 46 47 47 45 45 44 44 43 41 35 36 39 39 38 35 36 38 38 38 41 42 40 39 38 38 36 35
61 61 61 60 59 59 59 58 58 57 56 55 55 54 54 53 52 51 51 50 51 51 50 44 39 39 39 39 43 47 46 45 46 46 46 47 46 45 45 46 45 44 44 42 36 34 34 37 38 37 37 38 38 38 40 44 44 44 38 38 38 37 36
61 61 60 60 59 59 59 58 57 56 56 56 56 55 53 52 51 51 51 51 50 50 50 45 39 39 39 39 44 48 45 45 46 45 44 45 46 44 45 44 45 43 44 42 34 34 34 36 37 37 37 37 37 39 41 44 43 42 43 44 46 44 43
61 61 60 59 59 59 59 58 57 56 56 55 55 54 52 52 51 50 51 51 50 50 50 47 42 38 39 39 42 47 46 44 44 45 44 43 44 44 43 43 43 39 36 35 34 33 33 34 36 38 38 37 39 39 42 43 42 41 40 40 42 43 42
61 61 60 60 60 59 58 58 57 57 56 55 55 54 53 52 51 51 51 50 50 50 50 48 43 38 39 39 40 43 46 46 45 45 44 43 42 43 42 41 42 40 36 34 34 33 33 33 35 39 41 39 40 43 41 40 43 42 41 41 41 40 39
61 61 60 60 60 59 59 58 57 57 56 56 55 54 53 51 51 51 50 50 49 49 48 46 44 39 38 39 40 41 46 47 46 45 44 43 42 42 42 42 42 41 36 34 34 34 33 33 34 39 41 36 36 35 39 39 41 41 40 39 36 35 37
61 61 60 60 59 59 59 58 58 57 57 56 55 54 53 53 51 50 49 49 49 49 48 46 42 42 38 38 39 40 42 44 40 46 45 44 43 43 44 44 44 40 36 34 34 35 34 33 35 37 35 36 35 35 37 37 38 39 38 37 37 36 36
61 61 60 60 59 59 58 57 57 57 56 55 54 53 52 52 52 50 49 49 48 48 47 47 42 41 40 38 38 39 39 40 40 46 46 46 45 45 44 45 44 38 37 35 34 34 35 35 36 34 34 35 35 35 37 38 37 38 37 37 36 36 36